DW7346 Weather Reports


Display with metric or nautical units.
time (UTC)temp
F
wind
direction
speed
MPH
gust
MPH
rain 1hr
in
rain 24hr
in
rain mn
in
humidity
%
barometer
mb
20260506204505 62 340 0.0 7.0 0.00 0.02 0.02 77 1011.7
20260506203011 62 1 0.0 5.0 0.00 0.02 0.02 77 1011.9
20260506201502 61 316 1.0 6.0 0.00 0.02 0.02 78 1012.1
20260506200001 61 360 2.0 7.0 0.00 0.02 0.02 78 1012.7
20260506194624 60 324 1.0 5.0 0.00 0.02 0.02 79 1012.8
20260506193100 59 8 1.0 7.0 0.00 0.02 0.02 79 1012.9
20260506191559 59 8 1.0 6.0 0.00 0.02 0.02 80 1013.0
20260506190101 60 1 3.0 6.0 0.00 0.02 0.02 77 1012.8
20260506184605 59 4 1.0 5.0 0.00 0.02 0.02 80 1012.6
20260506183105 58 326 3.0 11.0 0.00 0.02 0.02 80 1011.6
20260506181600 58 8 5.0 12.0 0.00 0.02 0.02 80 1011.7
20260506180056 57 11 5.0 12.0 0.00 0.02 0.02 82 1012.3
20260506174559 56 1 5.0 10.0 0.00 0.02 0.02 84 1012.1
20260506173108 55 360 3.0 11.0 0.00 0.02 0.02 85 1012.0
20260506171554 55 7 5.0 10.0 0.00 0.02 0.02 85 1012.0
20260506170051 55 360 4.0 12.0 0.01 0.02 0.02 86 1012.5
20260506164555 54 4 2.0 8.0 0.01 0.02 0.02 88 1012.7
20260506163054 54 6 3.0 10.0 0.02 0.02 0.02 88 1012.9
20260506161601 54 350 1.0 7.0 0.02 0.02 0.02 89 1012.8
20260506160048 54 203 2.0 10.0 0.01 0.01 0.01 91 1012.1
20260506154546 54 360 3.0 11.0 0.01 0.01 0.01 91 1011.8
20260506153045 53 121 2.0 10.0 0.00 0.00 0.00 90 1012.2
20260506151559 53 309 1.0 3.0 0.00 0.00 0.00 87 1014.2
20260506150039 54 295 1.0 5.0 0.00 0.00 0.00 87 1013.4
20260506144539 54 20 2.0 10.0 0.00 0.00 0.00 87 1012.7
20260506143045 54 9 4.0 11.0 0.00 0.00 0.00 85 1011.4
20260506141534 54 1 1.0 10.0 0.00 0.00 0.00 86 1012.9
20260506140036 54 1 1.0 4.0 0.00 0.00 0.00 86 1012.4
20260506134528 53 29 3.0 9.0 0.00 0.00 0.00 86 1011.8
20260506133028 53 13 5.0 10.0 0.00 0.00 0.00 86 1011.5
20260506131528 53 335 1.0 6.0 0.00 0.00 0.00 86 1011.3
20260506130023 53 360 3.0 8.0 0.00 0.00 0.00 86 1011.2
20260506124521 53 301 2.0 12.0 0.00 0.00 0.00 85 1011.1
20260506123018 53 24 1.0 10.0 0.00 0.00 0.00 84 1011.0
20260506121515 54 4 2.0 6.0 0.00 0.00 0.00 83 1010.8
20260506120013 54 6 2.0 6.0 0.00 0.00 0.00 82 1010.6
20260506114514 55 341 1.0 8.0 0.00 0.00 0.00 81 1010.4
20260506113008 55 4 1.0 6.0 0.00 0.00 0.00 81 1010.2
20260506111508 55 18 2.0 10.0 0.00 0.00 0.00 81 1009.7
20260506110006 55 1 2.0 9.0 0.00 0.00 0.00 80 1009.6
20260506104616 56 6 5.0 11.0 0.00 0.00 0.00 79 1009.3
20260506104501 56 49 5.0 11.0 0.00 0.00 0.00 80 1009.3
20260506103058 56 351 3.0 8.0 0.00 0.00 0.00 80 1009.2
20260506101602 56 11 2.0 9.0 0.00 0.00 0.00 80 1008.9
20260506100051 56 9 1.0 6.0 0.00 0.00 0.00 80 1008.7
20260506094556 56 360 2.0 8.0 0.00 0.00 0.00 79 1008.4
20260506093053 57 3 0.0 6.0 0.00 0.00 0.00 80 1008.3
20260506091545 57 360 2.0 7.0 0.00 0.00 0.00 81 1008.2
20260506090044 57 1 2.0 7.0 0.00 0.00 0.00 80 1008.0
20260506084544 57 12 3.0 9.0 0.00 0.00 0.00 80 1007.9
20260506083041 57 359 3.0 9.0 0.00 0.00 0.00 80 1007.8
20260506081538 58 1 2.0 7.0 0.00 0.00 0.00 81 1007.8
20260506073035 58 22 1.0 4.0 0.00 0.00 0.00 81 1007.2
20260506071530 59 8 3.0 10.0 0.00 0.00 0.00 81 1007.3
20260506061523 60 353 3.0 11.0 0.00 0.00 0.00 82 1007.4
20260506044512 62 11 2.0 9.0 0.00 0.00 0.00 81 1007.2
20260506043010 62 359 1.0 6.0 0.00 0.00 0.00 81 1007.3
20260506041517 63 337 1.0 8.0 0.00 0.00 0.00 81 1007.1
20260506040004 64 7 1.0 7.0 0.00 0.00 0.00 81 1007.0
20260506034501 64 8 1.0 9.0 0.00 0.00 0.00 81 1006.4
20260506033112 65 343 5.0 10.0 0.00 0.00 0.00 80 1006.3
20260506031558 66 349 2.0 6.0 0.00 0.00 0.00 80 1006.1
20260506030051 67 360 4.0 9.0 0.00 0.00 0.00 79 1005.9
20260506024548 68 338 1.0 7.0 0.00 0.00 0.00 79 1005.7
20260506023045 68 355 2.0 8.0 0.00 0.00 0.00 79 1005.3
20260506021541 68 360 1.0 4.0 0.00 0.00 0.00 78 1004.6
20260506020039 69 359 1.0 4.0 0.00 0.00 0.00 77 1004.6
20260506014545 69 345 0.0 3.0 0.00 0.00 0.00 75 1003.9
20260506013037 70 352 1.0 5.0 0.00 0.00 0.00 75 1004.0
20260506011539 71 39 2.0 8.0 0.00 0.00 0.00 75 1004.0
20260506010030 72 360 2.0 7.0 0.00 0.00 0.00 73 1003.4
20260506004537 72 302 1.0 8.0 0.00 0.00 0.00 72 1003.3
20260506003027 73 18 1.0 7.0 0.00 0.00 0.00 72 1002.9
20260506001526 74 342 2.0 5.0 0.00 0.00 0.00 70 1002.3
20260506000034 76 314 2.0 8.0 0.00 0.00 0.00 69 1002.6
20260505234524 78 328 2.0 8.0 0.00 0.00 0.00 68 1002.3
20260505233023 79 307 2.0 10.0 0.00 0.00 0.00 67 1002.0
20260505231523 81 355 1.0 9.0 0.00 0.00 0.00 67 1001.8
20260505230022 82 356 2.0 6.0 0.00 0.00 0.00 65 1001.8
20260505224533 84 111 1.0 6.0 0.00 0.00 0.00 61 1001.3
20260505223028 85 323 0.0 6.0 0.00 0.00 0.00 60 1001.3
20260505221521 86 215 2.0 6.0 0.00 0.00 0.00 55 1001.0
20260505220033 87 331 1.0 5.0 0.00 0.00 0.00 55 1000.8
20260505214532 88 1 2.0 7.0 0.00 0.00 0.00 53 1001.0
20260505213023 90 244 4.0 8.0 0.00 0.00 0.00 54 1000.8
20260505211515 90 261 4.0 9.0 0.00 0.00 0.00 56 1000.9
20260505210011 89 264 3.0 9.0 0.00 0.00 0.00 57 1001.1